Location: Home
(42.5358°N, 72.7383°W)
Time: 13:24:27
(UTC-05:00)

Tiros 1 - Pass Details

Date: 29 November 2021
Orbit: 629 x 664 km, 48.4° (Epoch: 26 January)

Event Time Altitude Azimuth Distance (km) Brightness Sun altitude
Rises 23:17:42 0° 288° (WNW) 2,954 - -68.6°
Reaches altitude 10° 23:20:08 10° 295° (WNW) 2,049 - -68.7°
Maximum altitude 23:24:39 42° 7° (N) 929 - -68.9°
Drops below altitude 10° 23:29:11 10° 79° (E) 2,068 - -69.0°
Sets 23:31:39 0° 86° (E) 2,984 - -69.1°
